Location: Mountain Grove
(34.0887°N, 86.6172°W)
Time: 22:00:14
(UTC+00:00)

Geosat - Pass Details

Date: 14 July 2020
Orbit: 763 x 766 km, 108.0° (Epoch: 08 August)

Event Time Altitude Azimuth Distance (km) Brightness Sun altitude
Exits shadow 02:55:59 42° 141° (SE) 1,074 4.2 -20.3°
Maximum altitude 02:57:40 77° 64° (ENE) 786 3.9 -20.5°
Drops below altitude 10° 03:02:41 10° 339° (NNW) 2,306 7.5 -21.2°
Sets 03:04:58 0° 338° (NNW) 3,236 8.5 -21.5°
